TimeCST,TemperatureF,Dew PointF,Humidity,Sea Level PressureIn,VisibilityMPH,Wind Direction,Wind SpeedMPH,Gust SpeedMPH,PrecipitationIn,Events,Conditions,WindDirDegrees,DateUTC
12:52 AM,6.1,-2.0,69,30.34,10.0,NW,19.6,-,N/A,,Clear,320,2013-01-20 06:52:00
1:52 AM,6.1,-2.0,69,30.35,10.0,NW,18.4,-,N/A,,Clear,310,2013-01-20 07:52:00
2:52 AM,5.0,-2.0,73,30.38,10.0,NW,12.7,-,N/A,,Clear,320,2013-01-20 08:52:00
3:52 AM,3.9,-2.9,73,30.37,10.0,NNW,11.5,-,N/A,,Clear,330,2013-01-20 09:52:00
4:52 AM,3.9,-2.9,73,30.38,10.0,NNW,13.8,-,N/A,,Mostly Cloudy,330,2013-01-20 10:52:00
5:52 AM,3.9,-2.9,73,30.38,10.0,NNW,11.5,-,N/A,,Overcast,340,2013-01-20 11:52:00
6:52 AM,3.9,-4.0,70,30.40,10.0,NNW,10.4,-,N/A,,Overcast,330,2013-01-20 12:52:00
7:52 AM,3.9,-2.9,73,30.42,10.0,NNW,10.4,-,N/A,,Overcast,330,2013-01-20 13:52:00
8:45 AM,3.2,-2.2,78,30.35,1.8,WNW,11.5,-,0.00,Snow,Light Snow,300,2013-01-20 14:45:00
8:52 AM,5.0,-2.0,73,30.43,1.0,NNW,9.2,-,0.00,Snow,Light Snow,330,2013-01-20 14:52:00
9:03 AM,3.2,-0.4,85,30.34,0.8,NW,9.2,-,0.00,Snow,Light Snow,320,2013-01-20 15:03:00
9:11 AM,3.2,-0.4,85,30.35,1.0,NW,9.2,-,0.00,Snow,Light Snow,320,2013-01-20 15:11:00
9:52 AM,5.0,-0.0,80,30.46,1.2,NW,9.2,-,0.00,Snow,Light Snow,320,2013-01-20 15:52:00
10:52 AM,6.1,1.0,80,30.49,1.8,NW,9.2,-,0.00,Snow,Light Snow,320,2013-01-20 16:52:00
11:08 AM,6.8,1.4,79,30.39,0.8,NW,10.4,-,0.00,Snow,Light Snow,310,2013-01-20 17:08:00
11:22 AM,6.8,1.4,79,30.38,1.2,WNW,10.4,-,0.00,Snow,Light Snow,300,2013-01-20 17:22:00
11:32 AM,6.8,1.4,79,30.38,3.0,WNW,11.5,-,0.00,Snow,Light Snow,300,2013-01-20 17:32:00
11:52 AM,8.1,1.9,76,30.46,4.0,NNW,9.2,-,0.00,,Haze,330,2013-01-20 17:52:00
12:12 PM,8.6,1.4,73,30.36,4.0,NW,10.4,-,0.00,Snow,Light Snow,320,2013-01-20 18:12:00
12:34 PM,8.6,1.4,73,30.35,5.0,NNW,12.7,-,0.00,,Haze,330,2013-01-20 18:34:00
12:52 PM,9.0,1.9,73,30.44,6.0,WNW,12.7,-,0.00,,Haze,300,2013-01-20 18:52:00
1:28 PM,10.4,1.4,67,30.34,10.0,WNW,15.0,-,N/A,,Overcast,300,2013-01-20 19:28:00
1:52 PM,10.9,3.0,70,30.42,10.0,WNW,12.7,-,N/A,,Mostly Cloudy,290,2013-01-20 19:52:00
3:52 PM,12.0,3.0,67,30.40,10.0,WNW,15.0,-,N/A,,Clear,300,2013-01-20 21:52:00
4:12 PM,10.4,3.2,73,30.31,9.0,WNW,12.7,-,N/A,,Mostly Cloudy,290,2013-01-20 22:12:00
4:52 PM,10.0,1.9,70,30.40,10.0,NW,13.8,-,N/A,,Overcast,310,2013-01-20 22:52:00
5:13 PM,10.4,1.4,67,30.30,10.0,WNW,11.5,-,N/A,,Overcast,290,2013-01-20 23:13:00
5:52 PM,9.0,1.9,73,30.39,10.0,WNW,15.0,-,N/A,,Mostly Cloudy,300,2013-01-20 23:52:00
6:04 PM,8.6,1.4,73,30.30,10.0,WNW,15.0,-,N/A,,Mostly Cloudy,290,2013-01-21 00:04:00
6:52 PM,9.0,3.0,77,30.39,6.0,WNW,17.3,21.9,0.00,,Haze,300,2013-01-21 00:52:00
7:14 PM,8.6,3.2,79,30.30,7.0,WNW,15.0,-,N/A,,Overcast,300,2013-01-21 01:14:00
7:52 PM,8.1,1.0,73,30.39,6.0,WNW,20.7,28.8,0.00,Snow,Light Snow,300,2013-01-21 01:52:00
8:06 PM,6.8,1.4,79,30.30,2.5,NNW,15.0,-,0.00,Snow,Light Snow,330,2013-01-21 02:06:00
8:15 PM,6.8,-0.4,72,30.29,9.0,NW,13.8,-,0.00,,Mostly Cloudy,320,2013-01-21 02:15:00
8:23 PM,5.0,-0.4,78,30.29,10.0,NW,11.5,-,0.00,,Scattered Clouds,320,2013-01-21 02:23:00
8:52 PM,5.0,-2.0,73,30.39,10.0,NW,12.7,-,0.00,,Clear,310,2013-01-21 02:52:00
9:52 PM,3.9,-2.9,73,30.40,10.0,NW,17.3,23.0,N/A,,Scattered Clouds,310,2013-01-21 03:52:00
10:03 PM,3.2,-2.2,78,30.29,10.0,WNW,12.7,-,N/A,,Mostly Cloudy,300,2013-01-21 04:03:00
10:50 PM,3.2,-5.8,66,30.30,10.0,NW,19.6,26.5,N/A,,Scattered Clouds,320,2013-01-21 04:50:00
10:52 PM,3.0,-6.0,66,30.40,10.0,NW,23.0,28.8,N/A,,Scattered Clouds,320,2013-01-21 04:52:00
11:52 PM,1.0,-7.1,69,30.40,10.0,NNW,18.4,-,N/A,,Clear,330,2013-01-21 05:52:00